• In Netherlands
  • List of Countries
  • For 7 days
  • Water Temperature
  • Satellite Maps
  • Weather Map
  • Weather Widgets
  • user-avatar
    Login

    Hourly Weather Sidi Bu-l-Abbas

    Today, 23 March, Thursday

    Time Temperature Precipitation Wind Pressure Humidity
    00:00 +9°C° 0 mm 3 mps 718 mmHg 90%
    01:00 +9°C° 0 mm 3 mps 718 mmHg 89%
    02:00 +9°C° 0 mm 3 mps 718 mmHg 88%
    03:00 +9°C° 0 mm 3 mps 717 mmHg 87%
    04:00 +9°C° 0 mm 2 mps 717 mmHg 88%
    05:00 +9°C° 0 mm 2 mps 717 mmHg 89%
    06:00 +8°C° 0 mm 2 mps 717 mmHg 89%
    07:00 +10°C° 0.1 mm 3 mps 718 mmHg 82%
    08:00 +11°C° 0.1 mm 3 mps 718 mmHg 74%
    09:00 +12°C° 0.1 mm 4 mps 718 mmHg 66%
    10:00 +12°C° 0.1 mm 4 mps 718 mmHg 67%
    11:00 +12°C° 0.1 mm 5 mps 718 mmHg 67%
    12:00 +10°C° 0.1 mm 5 mps 718 mmHg 68%
    13:00 +10°C° 0.1 mm 5 mps 718 mmHg 65%
    14:00 +10°C° 0.1 mm 5 mps 717 mmHg 63%
    15:00 +10°C° 0.1 mm 5 mps 717 mmHg 60%
    16:00 +10°C° 0.1 mm 4 mps 717 mmHg 62%
    17:00 +10°C° 0.1 mm 4 mps 717 mmHg 63%
    18:00 +9°C° 0.1 mm 3 mps 717 mmHg 65%
    19:00 +8°C° 0.6 mm 3 mps 717 mmHg 70%
    20:00 +7°C° 0.6 mm 2 mps 718 mmHg 75%
    21:00 +7°C° 0.6 mm 2 mps 718 mmHg 81%
    22:00 +6°C° 1.4 mm 2 mps 718 mmHg 83%
    23:00 +6°C° 1.4 mm 2 mps 718 mmHg 85%

    Tomorrow, 24 March, Friday

    Time Temperature Precipitation Wind Pressure Humidity
    00:00 +5°C° 1.4 mm 2 mps 718 mmHg 88%
    01:00 +5°C° 0.8 mm 2 mps 717 mmHg 88%
    02:00 +6°C° 0.8 mm 1 mps 717 mmHg 88%
    03:00 +6°C° 0.8 mm 1 mps 717 mmHg 88%
    04:00 +6°C° 0.6 mm 1 mps 717 mmHg 89%
    05:00 +5°C° 0.6 mm 2 mps 717 mmHg 89%
    06:00 +5°C° 0.6 mm 2 mps 717 mmHg 89%
    07:00 +6°C° 0.2 mm 2 mps 717 mmHg 84%
    08:00 +6°C° 0.2 mm 2 mps 717 mmHg 79%
    09:00 +7°C° 0.2 mm 3 mps 718 mmHg 74%
    10:00 +8°C° 0.1 mm 4 mps 718 mmHg 67%
    11:00 +10°C° 0.1 mm 4 mps 718 mmHg 61%
    12:00 +10°C° 0.1 mm 5 mps 718 mmHg 54%
    13:00 +10°C° 0.2 mm 5 mps 718 mmHg 53%
    14:00 +12°C° 0.2 mm 5 mps 718 mmHg 52%
    15:00 +11°C° 0.2 mm 6 mps 718 mmHg 51%
    16:00 +10°C° 0 mm 5 mps 718 mmHg 56%
    17:00 +10°C° 0 mm 4 mps 718 mmHg 61%
    18:00 +9°C° 0 mm 3 mps 718 mmHg 66%
    19:00 +7°C° 0 mm 2 mps 718 mmHg 71%
    20:00 +6°C° 0 mm 2 mps 719 mmHg 76%
    21:00 +5°C° 0 mm 2 mps 719 mmHg 81%
    22:00 +5°C° 0 mm 2 mps 719 mmHg 80%
    23:00 +5°C° 0 mm 2 mps 720 mmHg 78%

    Day after tomorrow, 25 March, Saturday

    Time Temperature Precipitation Wind Pressure Humidity
    00:00 +5°C° 0 mm 2 mps 720 mmHg 77%
    01:00 +5°C° 0 mm 2 mps 720 mmHg 75%
    02:00 +6°C° 0 mm 2 mps 720 mmHg 73%
    03:00 +6°C° 0 mm 2 mps 720 mmHg 71%
    04:00 +5°C° 0 mm 2 mps 720 mmHg 71%
    05:00 +5°C° 0 mm 2 mps 720 mmHg 71%
    06:00 +5°C° 0 mm 2 mps 720 mmHg 71%
    07:00 +7°C° 0 mm 2 mps 720 mmHg 61%
    08:00 +10°C° 0 mm 2 mps 721 mmHg 51%
    09:00 +14°C° 0 mm 2 mps 722 mmHg 42%
    10:00 +15°C° 0 mm 2 mps 721 mmHg 38%
    11:00 +17°C° 0 mm 3 mps 721 mmHg 34%
    12:00 +18°C° 0 mm 3 mps 721 mmHg 31%
    13:00 +19°C° 0 mm 4 mps 720 mmHg 30%
    14:00 +19°C° 0 mm 4 mps 720 mmHg 29%
    15:00 +20°C° 0 mm 4 mps 719 mmHg 28%
    16:00 +18°C° 0 mm 3 mps 719 mmHg 36%
    17:00 +16°C° 0 mm 3 mps 718 mmHg 44%
    18:00 +13°C° 0 mm 2 mps 718 mmHg 53%
    19:00 +12°C° 0 mm 2 mps 718 mmHg 60%
    20:00 +10°C° 0 mm 1 mps 719 mmHg 67%
    21:00 +8°C° 0 mm 1 mps 719 mmHg 74%
    22:00 +8°C° 0 mm 1 mps 719 mmHg 74%
    23:00 +7°C° 0 mm 1 mps 719 mmHg 74%

    26 March, Sunday

    Time Temperature Precipitation Wind Pressure Humidity
    00:00 +7°C° 0 mm 1 mps 719 mmHg 74%
    01:00 +7°C° 0 mm 1 mps 718 mmHg 74%
    02:00 +6°C° 0 mm 0 mps 718 mmHg 74%
    03:00 +5°C° 0 mm 0 mps 717 mmHg 74%
    04:00 +5°C° 0 mm 0 mps 717 mmHg 74%
    05:00 +5°C° 0 mm 0 mps 717 mmHg 74%
    06:00 +5°C° 0 mm 0 mps 717 mmHg 75%
    07:00 +8°C° 0 mm 0 mps 718 mmHg 63%
    08:00 +13°C° 0 mm 1 mps 718 mmHg 50%
    09:00 +16°C° 0 mm 1 mps 719 mmHg 38%
    10:00 +19°C° 0 mm 1 mps 719 mmHg 36%
    11:00 +19°C° 0 mm 2 mps 719 mmHg 34%
    12:00 +21°C° 0 mm 2 mps 719 mmHg 31%
    13:00 +21°C° 0 mm 3 mps 718 mmHg 33%
    14:00 +21°C° 0 mm 3 mps 717 mmHg 36%
    15:00 +21°C° 0 mm 4 mps 717 mmHg 38%
    16:00 +19°C° 0 mm 3 mps 717 mmHg 47%
    17:00 +17°C° 0 mm 3 mps 716 mmHg 57%
    18:00 +15°C° 0 mm 2 mps 716 mmHg 66%
    19:00 +13°C° 0 mm 2 mps 716 mmHg 73%
    20:00 +12°C° 0 mm 2 mps 717 mmHg 79%
    21:00 +9°C° 0 mm 2 mps 717 mmHg 86%
    22:00 +10°C° 0 mm 1 mps 717 mmHg 87%
    23:00 +9°C° 0 mm 1 mps 716 mmHg 87%

    27 March, Monday

    Time Temperature Precipitation Wind Pressure Humidity
    00:00 +8°C° 0 mm 1 mps 716 mmHg 88%
    01:00 +8°C° 0 mm 1 mps 716 mmHg 88%
    02:00 +8°C° 0 mm 1 mps 715 mmHg 88%
    03:00 +8°C° 0 mm 1 mps 715 mmHg 87%
    04:00 +8°C° 0 mm 1 mps 715 mmHg 87%
    05:00 +8°C° 0 mm 1 mps 716 mmHg 86%
    06:00 +7°C° 0 mm 2 mps 716 mmHg 86%
    07:00 +12°C° 0 mm 2 mps 717 mmHg 72%
    08:00 +14°C° 0 mm 3 mps 718 mmHg 59%
    09:00 +18°C° 0 mm 4 mps 719 mmHg 45%
    10:00 +19°C° 0 mm 5 mps 719 mmHg 44%
    11:00 +20°C° 0 mm 5 mps 719 mmHg 42%
    12:00 +21°C° 0 mm 5 mps 720 mmHg 41%
    13:00 +20°C° 0 mm 5 mps 719 mmHg 41%
    14:00 +20°C° 0 mm 5 mps 719 mmHg 41%
    15:00 +20°C° 0 mm 5 mps 719 mmHg 41%
    16:00 +18°C° 0 mm 4 mps 719 mmHg 47%
    17:00 +17°C° 0 mm 3 mps 719 mmHg 54%
    18:00 +15°C° 0 mm 2 mps 719 mmHg 60%
    19:00 +13°C° 0 mm 2 mps 720 mmHg 66%
    20:00 +12°C° 0 mm 2 mps 720 mmHg 71%
    21:00 +9°C° 0 mm 2 mps 721 mmHg 77%
    22:00 +9°C° 0 mm 2 mps 721 mmHg 78%
    23:00 +9°C° 0 mm 2 mps 721 mmHg 79%

    28 March, Tuesday

    Time Temperature Precipitation Wind Pressure Humidity
    00:00 +9°C° 0 mm 2 mps 721 mmHg 80%
    01:00 +9°C° 0 mm 2 mps 721 mmHg 82%
    02:00 +8°C° 0 mm 2 mps 721 mmHg 84%
    03:00 +8°C° 0 mm 2 mps 720 mmHg 86%
    04:00 +8°C° 0 mm 2 mps 721 mmHg 87%
    05:00 +8°C° 0 mm 2 mps 721 mmHg 88%
    06:00 +8°C° 0 mm 2 mps 721 mmHg 89%
    07:00 +11°C° 0 mm 3 mps 722 mmHg 79%
    08:00 +13°C° 0 mm 4 mps 722 mmHg 69%
    09:00 +15°C° 0 mm 5 mps 723 mmHg 59%
    10:00 +16°C° 0 mm 5 mps 723 mmHg 56%
    11:00 +17°C° 0 mm 6 mps 723 mmHg 53%
    12:00 +18°C° 0 mm 7 mps 723 mmHg 50%
    13:00 +18°C° 0 mm 7 mps 722 mmHg 50%
    14:00 +17°C° 0 mm 6 mps 722 mmHg 51%
    15:00 +17°C° 0 mm 6 mps 722 mmHg 52%
    16:00 +16°C° 0 mm 5 mps 722 mmHg 57%
    17:00 +15°C° 0 mm 4 mps 722 mmHg 62%
    18:00 +13°C° 0 mm 3 mps 722 mmHg 68%
    19:00 +12°C° 0 mm 3 mps 723 mmHg 72%
    20:00 +11°C° 0 mm 3 mps 723 mmHg 77%
    21:00 +9°C° 0 mm 2 mps 723 mmHg 82%
    22:00 +9°C° 0 mm 3 mps 723 mmHg 80%
    23:00 +9°C° 0 mm 3 mps 723 mmHg 77%
    Show more